Flag for Canada Weather past 2 weeks in Inuvik, Northwest Territories, Canada

Now
55 °F

Broken clouds.


Feels Like: 55 °F
Forecast: 45 / 65 °F
Wind: 5 mph from Northeast

Location: Inuvik

Current Time: Jul 31, 2015 at 12:16:17 AM

Latest Report: Jul 30, 2015 at 11:00 PM


Visibility: 15 mi

Pressure: 30.06 "Hg

Humidity: 77%

Dew point: 48 °F

Location of InuvikLocation

Historic Weather in Inuvik — Graph

°F

Inuvik temperature yesterday

Maximum temperature yesterday: 59 °F (at 4:00 PM)
Minimum temperature yesterday: 46 °F (at 3:00 AM)
Average temperature yesterday: 52 °F

Past Weeks' High & Low Weather Summary

 TemperatureHumidityPressure
High75 °F (Jul 16, 3:00 PM)100% (Jul 18, 12:00 AM)30.10 "Hg (Jul 18, 12:00 AM)
Low43 °F (Jul 24, 7:00 AM)44% (Jul 16, 3:00 PM)29.59 "Hg (Jul 17, 11:00 PM)
Average54 °F82%29.86 "Hg
* Reported Jul 15 11:00 PM — Jul 30 11:00 PM, Inuvik, Weather by CustomWeather, © 2015

Note: Actual official high and low records may vary slightly from our data, if they occured in-between our weather recording intervals... More about our weather records

Advertising

Inuvik weather history for previous 24 hours

 ConditionsComfort  
Time TempWeatherWind HumidityBarometerVisibility
11:00 PM
Thu, Jul 30
55 °FBroken clouds.5 mph77%30.06 "Hg15 mi
10:00 PM57 °FPartly sunny.6 mph67%30.06 "Hg15 mi
9:00 PM57 °FPartly sunny.6 mph72%30.06 "Hg15 mi
8:00 PM59 °FPartly sunny.7 mph63%30.06 "Hg15 mi
7:00 PM57 °FOvercast.7 mph67%30.07 "Hg15 mi
6:00 PM57 °FPartly sunny.5 mph67%30.08 "Hg15 mi
5:00 PM57 °FPartly sunny.5 mph67%30.09 "Hg15 mi
4:00 PM59 °FMostly cloudy.5 mph63%30.09 "Hg15 mi
3:00 PM55 °FPartly sunny.6 mph67%30.09 "Hg15 mi
2:00 PM54 °FMostly cloudy.5 mph77%30.10 "Hg15 mi
1:00 PM52 °FMostly cloudy.7 mph82%30.09 "Hg15 mi
12:53 PM52 °FMostly cloudy.8 mph82%30.09 "Hg15 mi
12:00 PM52 °FMostly cloudy.6 mph82%30.10 "Hg15 mi
11:00 AM50 °FMostly cloudy.7 mph88%30.10 "Hg15 mi
10:00 AM48 °FMore clouds than sun.7 mph87%30.10 "Hg15 mi
9:00 AM48 °FCloudy.6 mph87%30.09 "Hg15 mi
8:00 AM46 °FPartly sunny.5 mph87%30.09 "Hg15 mi
7:00 AM46 °FPartly sunny.8 mph87%30.09 "Hg15 mi
6:00 AM46 °FPassing clouds.10 mph93%30.09 "Hg15 mi
5:00 AM46 °FLight rain. Overcast.10 mph93%30.09 "Hg15 mi
4:00 AM46 °FLight rain. Mostly cloudy.12 mph93%30.08 "Hg15 mi
3:00 AM46 °FMostly cloudy.9 mph93%30.08 "Hg15 mi
2:00 AM48 °FMore clouds than sun.10 mph87%30.07 "Hg15 mi
1:00 AM50 °FMostly cloudy.14 mph76%30.06 "Hg15 mi
12:00 AM50 °FMostly cloudy.13 mph76%30.06 "Hg15 mi
Weather by CustomWeather, © 2015

See weather overviewHow to use our weather pages